sat.trackr.live / text

‹ back to catalog

2026-106D

NORAD 69100 · 2026-106D

PAYLOAD ACTIVE UNKNOWN

§ Identity

Operator
Country
PRC
Launch date
2026-05-15
Launch site
JSC
Launch vehicle
Mass (kg)
RCS (m²)

External: N2YO · Heavens-Above · Gunter

§ Orbital elements

Epoch: 2026-05-15T21:29:25.511424Z

Period
95.30 min
Inclination
97.5062°
Eccentricity
0.0012136
Mean motion
15.10959134 rev/d
Perigee alt
524.9 km
Apogee alt
541.7 km
Semi-major
6,911.4 km
B*
3.3645e-5
RAAN
218.5717°
Arg perigee
280.2995°
Mean anomaly
79.6866°
Rev number
11

§ Raw data

2026-106D1 69100U 26106D   26135.89543416  .00000498  00000+0  33645-4 0  99932 69100  97.5062 218.5717 0012136 280.2995  79.6866 15.10959134   118

JSON: /api/v1/satellites/69100 · /tle

For live sub-satellite position, see the globe view (requires WebGL).

§ Visibility from observer

Set your observer location to see the next 7 days of passes ≥ 10°. The values pass through the URL so the page stays shareable.

No JS? Fill the form by hand. The geolocation button needs JavaScript.